www.pogodaiklimat.ru

Погода и климат >> Архив погоды >> КНДР >> Wonsan


ПОГОДА в Wonsan

  • Прогноз погоды в Wonsan
  • Монитор погоды в Wonsan
  • Климат города

АРХИВ ПОГОДЫ в Wonsan

Время (UTC), дата Ветер
(напр.,м/с)
 
Видим.   Явления Облачность Т
(С)
Тd
(С)
f
(%)
Тe
(С)
Тes
(С)
Комфортность P
(гПа)
Po
(гПа)
Тmin
(С)
Tmax
(С)
R
(мм)
R24
(мм)
S
(см)
03 16.07 ЮЗ 2 30 км 1/1 600 м
[Sc diur, vesp]
+33.0 +21.7 52 +41 +59 опасность
перегрева
1010.3 1006.2
06 16.07 З 3 30 км ясно +34.9 +21.8 47 +43 +55 опасность
перегрева
1010.6 1006.5
09 16.07 З 1 30 км ясно +33.9 +22.1 50 +43 +45 опасность
перегрева
1008.2 1004.1
12 16.07 З 2 20 км 3/0
[Ac lent]
+29.9 +22.3 64 +39 +39 очень
душно
1009.3 1005.2 +35.7
15 16.07 ЮЗ 1 20 км ясно +27.0 +22.6 77 +36 +36 очень
душно
1010.0 1005.9
18 16.07 ЮЗ 1 20 км ясно +26.0 +21.5 76 +33 +33 очень
душно
1010.0 1005.9
21 16.07 штиль 0 20 км ясно +24.6 +20.9 80 +31 +31 очень
душно
1010.1 1005.9
00 17.07 штиль 0 20 км ясно +30.3 +22.0 61 +39 +52 опасность
солнечного
удара
1010.1 1005.9 +24.0
03 17.07 ЮЗ 6 20 км ясно +32.5 +21.6 53 +41 +49 опасность
перегрева
1011.2 1007.1
06 17.07 З 4 20 км ясно +33.3 +21.5 50 +41 +51 опасность
перегрева
1009.2 1005.1
09 17.07 З 3 20 км ясно +33.4 +21.8 51 +42 +44 опасность
перегрева
1007.9 1003.8
12 17.07 З 1 20 км ясно +28.7 +21.4 65 +37 +37 очень
душно
1008.7 1004.5 +34.6
15 17.07 штиль 0 20 км ясно +26.7 +21.1 71 +34 +34 очень
душно
1009.4 1005.2
18 17.07 штиль 0 20 км ясно +24.7 +20.3 77 +31 +31 очень
душно
1009.9 1005.7
21 17.07 штиль 0 20 км ясно +23.0 +20.2 84 +30 +30 очень
душно
1012.6 1008.4
00 18.07 штиль 0 10 км дымка 10/10
[Sc]
+22.5 +20.8 90 +29 +29 очень
душно
1012.7 1008.5 +21.9
03 18.07 В 2 10 км дымка 10/10
[Sc]
+24.1 +20.9 82 +30 +30 очень
душно
1011.7 1007.5
06 18.07 СВ 2 10 км дымка 10/10
[Sc]
+24.6 +21.3 82 +31 +31 очень
душно
1010.2 1006.0
09 18.07 В 3 15 км 5/3 600 м
[Sc Ci fib]
+24.1 +21.5 85 +31 +32 очень
душно
1010.3 1006.1
12 18.07 штиль 0 15 км 9/9 600 м
[Sc]
+22.9 +21.5 92 +31 +31 очень
душно
1007.9 1003.7 +27.0
15 18.07 штиль 0 15 км 10/10 600 м
[Sc]
+22.7 +21.7 94 +30 +30 очень
душно
1007.9 1003.7
18 18.07 штиль 0 2000 м дымка 3/3 600 м
[Sc]
+21.9 +21.1 95 +28 +28 душно 1010.2 1006.0
21 18.07 штиль 0 10 км дымка 4/4 1000 м
[Sc]
+22.8 +21.1 90 +30 +30 очень
душно
1010.2 1006.0
00 19.07 штиль 0 20 км 3/3 600 м
[Sc]
+29.3 +20.5 59 +36 +45 очень
душно
1011.6 1007.4 +21.7
03 19.07 штиль 0 20 км ясно +32.7 +20.1 48 +39 +66 опасность
солнечного
удара
1009.6 1005.4
06 19.07 штиль 0 20 км ясно +35.4 +21.5 45 +43 +62 опасность
перегрева
1008.9 1004.7
09 19.07 З 3 20 км ясно +34.7 +22.5 49 +44 +46 опасность
перегрева
1006.8 1002.7
12 19.07 штиль 0 20 км ясно +29.2 +24.0 74 +41 +41 опасность
перегрева
1008.4 1004.2 +36.4
15 19.07 штиль 0 20 км ясно +26.6 +23.5 83 +36 +36 очень
душно
1009.5 1005.3
18 19.07 штиль 0 20 км ясно +24.8 +21.7 83 +32 +32 очень
душно
1008.6 1004.4
21 19.07 штиль 0 20 км ясно +24.3 +20.5 79 +30 +31 очень
душно
1008.1 1003.9
00 20.07 штиль 0 20 км 1/0
[Ci fib]
+29.6 +22.3 65 +39 +51 опасность
солнечного
удара
1008.8 1004.6 +23.7
03 20.07 В 1 20 км 1/0
[Ci fib]
+33.3 +20.1 46 +40 +62 опасность
солнечного
удара
1007.9 1003.7
06 20.07 штиль 0 20 км ясно +35.4 +21.1 43 +42 +61 опасность
перегрева
1006.4 1002.2
09 20.07 З 1 20 км ясно +34.6 +22.3 49 +44 +46 опасность
перегрева
1005.8 1001.6
12 20.07 З 1 20 км ясно +29.3 +22.6 67 +39 +39 очень
душно
1006.7 1002.5 +36.6
15 20.07 штиль 0 20 км ясно +27.1 +21.4 71 +34 +34 очень
душно
1007.3 1003.1
18 20.07 ЮЗ 2 20 км ясно +24.9 +20.1 75 +31 +31 очень
душно
1008.7 1004.5
21 20.07 Ю 2 20 км 4/0
[Ci fib]
+23.6 +19.7 79 +29 +29 душно 1008.7 1004.5
00 21.07 штиль 0 20 км 1/0
[Ci fib]
+30.0 +20.3 56 +37 +49 очень
душно
1008.3 1004.1 +23.5
03 21.07 штиль 0 20 км 1/0
[Ci sp]
+35.3 +20.1 41 +41 +67 опасность
перегрева
1007.5 1003.3
06 21.07 З 3 20 км 3/0
[Ci sp]
+37.2 +20.3 37 +43 +54 опасность
перегрева
1007.7 1003.5
09 21.07 З 3 20 км 3/0
[Ci sp]
+36.7 +22.9 45 +46 +48 опасность
перегрева
1006.0 1001.8
12 21.07 штиль 0 20 км ясно +30.4 +22.6 63 +40 +40 очень
душно
1007.3 1003.1 +38.1
15 21.07 штиль 0 20 км ясно +26.6 +21.5 74 +34 +34 очень
душно
1007.9 1003.7
18 21.07 З 3 20 км ясно +24.7 +20.1 76 +30 +30 очень
душно
1007.1 1002.9
21 21.07 штиль 0 20 км ясно +23.9 +18.3 71 +28 +29 душно 1007.5 1003.3
00 22.07 штиль 0 20 км ясно +30.3 +20.2 55 +37 +50 очень
душно
1007.8 1003.6 +23.1
03 22.07 штиль 0 20 км ясно +36.1 +17.9 34 +40 +66 опасность
солнечного
удара
1007.0 1002.9
06 22.07 штиль 0 20 км ясно +38.8 +19.0 32 +43 +62 опасность
перегрева
1005.8 1001.7
09 22.07 штиль 0 20 км ясно +37.6 +23.2 44 +48 +51 опасность
перегрева
1004.9 1000.8
12 22.07 штиль 0 20 км ясно +31.3 +20.9 54 +39 +39 очень
душно
1007.3 1003.2 +39.7
15 22.07 ЮЗ 1 20 км ясно +28.3 +21.1 65 +36 +36 очень
душно
1006.9 1002.8
18 22.07 Ю 2 20 км ясно +25.4 +19.9 72 +31 +31 очень
душно
1006.9 1002.7
21 22.07 штиль 0 20 км 6/0
[Ac und]
+24.7 +18.7 69 +29 +30 душно 1007.6 1003.4
00 23.07 штиль 0 15 км 10/0
[Ac trans]
+29.6 +22.1 64 +38 +43 очень
душно
1008.1 1003.9 +24.4

 

Местоположение метеостанции Wonsan (КНДР): широта 39.18 долгота 127.43 высота над уровнем моря 36 м.

В архиве по умолчанию представлена погода в Wonsan за последнюю неделю. Архивные данные за месяц целиком и за предыдущие месяцы, начиная с января 2011 года, Вы можете получить, выбрав интересующий диапазон дат из раскрывающегося списка и нажав кнопку "Ввод!".


*Определитесь, кто Вы:
робот инопланетянин человек

Внимание! Время в таблицах - всемирное. Для получения местного времени необходимо прибавить поправку, которая в Wonsan равна 9 ч.

Смотрите также архив погоды в соседних городах и на ближайших метеорологических станциях:

Погода в Yangdok (КНДР) (67 км)
Погода в Changjon (КНДР) (82 км)
Погода в Hamhung (КНДР) (84 км)
Погода в Pyonggang (КНДР) (86 км)
Погода в Singye (КНДР) (109 км)
Погода в Sinpo (КНДР) (114 км)
Погода в Cheorwon (Корея) (115 км)
Погода в Changjin (КНДР) (133 км)
Погода в Sokcho (Корея) (143 км)
Погода в Pyongyang (КНДР) (143 км)

Пояснения к столбцам:

Ветер - указаны скорость ветра в м/с - средняя за 10 мин, порывы в срок и между сроками (в фигурных скобках) и направление, откуда дует ветер: С - северный, СВ - северо-восточный, В - восточный, ЮВ - юго-восточный, Ю - южный, ЮЗ - юго-западный, З - западный, СЗ - северо-западный.
Видимость - горизонтальная дальность видимости в метрах или километрах. При видимости от 1 до 10 км при отсутствии осадков обычно наблюдается дымка, при ухудшении видимости до 1 км и менее - туман. В сухую погоду видимость может ухудшаться дымом, пылью или мглою.
Явления - указаны атмосферные явления, наблюдавшиеся в срок или в последний час перед сроком; фигурными скобками обозначены явления, наблюдавшиеся между сроками (за 1-3 часа до срока); квадратными скобками обозначены град или гололедные отложения с указанием их диаметра в мм.
Облачность - указаны через наклонную черту общая и нижняя облачность в баллах и высота нижней границы облаков в метрах; квадратными скобками обозначены формы облаков: Ci - перистые, Cs - перисто-слоистые, Cc - перисто-кучевые, Ac - высококучевые, As - высокослоистые, Sc - слоисто-кучевые, Ns - слоисто-дождевые, Cu - кучевые, Cb - кучево-дождевые. Подробнее классификацию облаков см. в Атласе облаков (PDF).
T - Температура воздуха - температура, измеренная на высоте 2 м над землей.
Td - Температура точки росы - температура, при понижении до которой содержащийся в воздухе водяной пар достигнет насыщения.
f - Относительная влажность воздуха - влажноcть воздуха, измеренная на высоте 2 м над землей.
Te - Эффективная температура - температура, которую ощущает одетый по сезону человек в тени. Характеристика душности погоды. При расчете учитывается влияние влажности воздуха и скорости ветра на теплоощущения человека.
Tes - Эффективная температура на солнце - температура, которую ощущает человек, с поправкой на солнечный нагрев. Характеристика знойности погоды. Зависит от высоты солнца над горизонтом, облачности и скорости ветра. Ночью, в пасмурную погоду, а также при ветре 12 м/с и более поправка равна нулю.
P - Атмосферное давление - приведенное к уровню моря атмосферное давление.
Po - Атмосферное давление - измеренное на уровне метеостанции атмосферное давление.
Tmin - Минимальная температура - минимум температуры воздуха на высоте 2 м над землей.
Tmax - Максимальная температура - максимум температуры воздуха на высоте 2 м над землей.
R - Количество осадков - Количество выпавших осадков за период времени, мм. При наведении курсора мыши на число - период времени, за который выпало указанное количество осадков.
R24 - Количество осадков - Количество выпавших осадков за 24 часа, мм.
S - Снежный покров - Высота снежного покрова, см. При наведении курсора мыши на число - состояние снежного покрова и степень покрытия местности в баллах.